QPF
0.00 0.00 0.00 0.00 0.00 0.00 0.00 0.00 0.00 0.00 0.00 0.00 0.00 0.00 0.00 0.00 0.00 0.00 0.00 0.00 0.00 0.00
0.00 0.00 0.00 0.00 0.00 0.00 0.00 0.00 0.00 0.00 0.00 0.00 0.00 0.00 0.00 0.00 0.00 0.00 0.00 0.00 0.00 0.00
0.00 0.00 0.00 0.00 0.00 0.00 0.00 0.00 0.00 0.00 0.00 0.00 0.00 0.00 0.00 0.00 0.00 0.00 0.00 0.00 0.00 0.00
0.00 0.00 0.00 0.00 0.00 0.00 0.00 0.00 0.00 0.00 0.00 0.00 0.00 0.00 0.00 0.00 0.00 0.00 0.00 0.00 0.00 0.00
0.00 0.00 0.00 0.00 0.00 0.00 0.00 0.00 0.00 0.00 0.00 0.00 0.00 0.00 0.00 0.00 0.00 0.00 0.00 0.00 0.00 0.00
0.00 0.00 0.00 0.00 0.00 0.00 0.00 0.00 0.00 0.00 0.00 0.00 0.00 0.00 0.00 0.00 0.00 0.00 0.00 0.00 0.00 0.00
0.00 0.00 0.00 0.00 0.00 0.00 0.00 0.00 0.00 0.00 0.00 0.00 0.00 0.00 0.00 0.00 0.00 0.00 0.00 0.00 0.00 0.00
0.00 0.00 0.00 0.00 0.00 0.00 0.00 0.00 0.00 0.00 0.00 0.00 0.00 0.00 0.00 0.00 0.00 0.00 0.00 0.00 0.00 0.00
0.00 0.00 0.00 0.00 0.00 0.00 0.00 0.00 0.00 0.00 0.00 0.00 0.00 0.00 0.00 0.00 0.00 0.00 0.00 0.00 0.00 0.00
0.00 0.00 0.00 0.00 0.00 0.00 0.00 0.00 0.00 0.00 0.00 0.00 0.00 0.00 0.00 0.00 0.00 0.00 0.00 0.00 0.00 0.00
0.00 0.00 0.00 0.00 0.00 0.00 0.00 0.00 0.00 0.00 0.00 0.00 0.00 0.00 0.00 0.00 0.00 0.00 0.00 0.00 0.00 0.00
0.00 0.00 0.00 0.00 0.00 0.00 0.00 0.00 0.00 0.00 0.00 0.00 0.00 0.00 0.00 0.00 0.00 0.00 0.00 0.00 0.00 0.00
0.00 0.00 0.00 0.00 0.00 0.00 0.00 0.00 0.00 0.00 0.00 0.00 0.00 0.00 0.00 0.00 0.00 0.00 0.00 0.00 0.00 0.00
0.00 0.00 0.00 0.00 0.00 0.00 0.00 0.00 0.00 0.00 0.00 0.00 0.00 0.00 0.00 0.00 0.00 0.00 0.00 0.00 0.00 0.00
MSLP
1025.36 1025.90 1026.03 1026.19 1025.72 1025.31 1025.10 1024.92 1024.58 1024.45 1024.06 1023.27 1022.51 1022.09 1021.89 1021.81 1021.69 1021.60 1021.72 1021.62 1021.50 1021.17
1026.56 1026.03 1026.61 1026.75 1026.21 1025.81 1025.46 1025.35 1025.20 1024.79 1024.64 1023.94 1023.20 1022.71 1022.46 1022.03 1021.89 1021.77 1021.59 1021.39 1021.32 1021.16
1026.62 1026.23 1026.54 1026.91 1026.64 1026.49 1026.21 1025.64 1025.84 1025.19 1024.68 1024.42 1023.80 1023.17 1022.78 1022.46 1022.01 1021.73 1021.47 1021.24 1021.08 1020.83
1026.37 1026.36 1026.57 1026.69 1026.83 1026.58 1026.30 1026.15 1025.84 1025.47 1025.05 1024.69 1024.30 1023.48 1023.04 1022.71 1022.19 1021.97 1021.38 1020.84 1020.95 1020.73
1026.75 1026.83 1026.95 1026.88 1026.76 1026.31 1026.17 1025.76 1025.44 1024.81 1024.74 1024.46 1024.03 1023.49 1022.97 1022.84 1022.44 1022.14 1021.65 1020.80 1020.46 1020.34
1026.93 1027.11 1027.22 1027.16 1026.93 1026.47 1026.12 1025.64 1025.28 1025.00 1024.89 1024.48 1023.67 1023.30 1022.94 1022.57 1022.26 1021.88 1021.55 1020.94 1020.36 1019.70
1026.93 1027.03 1027.00 1026.87 1026.68 1026.46 1026.12 1025.85 1025.44 1024.97 1024.69 1024.29 1023.63 1023.31 1022.91 1022.34 1021.93 1021.58 1020.82 1020.41 1019.83 1019.45
1026.76 1026.79 1026.75 1026.69 1026.51 1026.27 1025.97 1025.56 1025.13 1024.73 1024.26 1023.78 1023.41 1022.83 1022.33 1021.96 1021.45 1020.93 1020.00 1019.31 1018.82 1018.19
1026.66 1026.62 1026.65 1026.61 1026.50 1026.20 1025.73 1025.29 1024.82 1024.35 1023.92 1023.20 1022.62 1022.22 1021.96 1021.67 1021.10 1020.45 1019.66 1018.73 1017.93 1017.46
1026.96 1027.07 1027.10 1026.97 1026.65 1026.22 1025.69 1025.21 1024.67 1024.10 1023.67 1022.76 1022.03 1021.96 1021.48 1021.07 1020.41 1019.60 1018.83 1018.17 1017.60 1016.92
1027.35 1027.48 1027.35 1027.13 1026.87 1026.39 1025.94 1025.38 1024.72 1024.04 1023.63 1022.78 1021.92 1021.75 1021.19 1020.68 1019.81 1018.87 1018.09 1017.57 1017.07 1016.45
1027.84 1027.82 1027.67 1027.48 1027.04 1026.60 1026.07 1025.45 1024.86 1024.26 1023.52 1022.92 1022.10 1021.83 1021.02 1020.17 1019.26 1018.19 1017.26 1016.82 1016.28 1015.74
1027.88 1027.85 1027.73 1027.45 1027.06 1026.58 1026.19 1025.38 1024.78 1024.00 1023.64 1022.92 1022.04 1021.48 1020.53 1019.55 1018.56 1017.40 1016.59 1015.89 1015.12 1014.58
1027.95 1027.80 1027.57 1027.15 1026.78 1026.27 1025.77 1025.17 1024.63 1023.87 1023.28 1022.61 1021.86 1020.91 1019.88 1018.84 1017.77 1016.93 1015.87 1015.06 1014.25 1013.75
Thickness
5477 5472 5469 5465 5466 5468 5468 5468 5470 5471 5475 5480 5485 5488 5492 5493 5493 5494 5492 5494 5495 5500
5449 5451 5445 5442 5444 5444 5444 5441 5442 5446 5446 5453 5460 5463 5465 5467 5469 5472 5473 5475 5476 5479
5428 5429 5424 5420 5420 5419 5418 5420 5417 5420 5423 5425 5430 5436 5440 5442 5446 5448 5451 5457 5458 5460
5409 5407 5403 5400 5398 5397 5397 5395 5396 5398 5399 5400 5402 5409 5414 5418 5421 5424 5430 5434 5436 5438
5387 5383 5379 5376 5376 5377 5376 5376 5377 5381 5381 5381 5381 5384 5387 5390 5394 5398 5403 5410 5415 5418
5360 5356 5353 5351 5350 5350 5352 5353 5354 5354 5354 5356 5361 5362 5362 5361 5363 5368 5375 5384 5389 5397
5333 5330 5327 5324 5324 5323 5323 5324 5325 5328 5328 5329 5332 5332 5332 5335 5337 5340 5350 5356 5365 5372
5308 5304 5300 5298 5295 5294 5294 5295 5297 5300 5302 5304 5307 5310 5306 5305 5309 5315 5327 5337 5344 5354
5286 5282 5277 5274 5271 5270 5270 5270 5272 5273 5273 5279 5281 5278 5274 5273 5279 5288 5298 5309 5319 5327
5263 5258 5255 5252 5250 5250 5250 5250 5250 5250 5247 5252 5257 5248 5248 5246 5249 5261 5273 5282 5289 5296
5242 5237 5234 5232 5229 5227 5226 5226 5227 5228 5225 5227 5232 5222 5221 5219 5225 5236 5247 5253 5259 5264
5222 5217 5213 5209 5207 5204 5203 5203 5202 5200 5200 5199 5202 5195 5196 5199 5205 5215 5224 5227 5232 5235
5206 5200 5195 5190 5186 5184 5179 5180 5178 5179 5174 5173 5174 5172 5176 5180 5186 5194 5201 5205 5209 5212
5189 5183 5178 5175 5170 5166 5163 5160 5156 5156 5153 5151 5151 5155 5160 5164 5169 5172 5179 5182 5188 5189